STARLINK-3795

operational
NORAD ID: 52264 Int'l Des: 2022-041 Owner: SPXS Country: US Constellation: starlink
LEOCIRCULAR

关于 STARLINK-3795

正在加载描述...

实时位置

正在加载3D地球...

即将过境

高度历史

Altitude vs Time

uPlot chart will show altitude changes over time

两行轨道根数

1 52264U 22041D 25251.61429395 .00001429 00000-0 10787-3 0 9994
2 52264 53.2165 206.4880 0001422 90.8550 269.2605 15.08843687186877
Epoch: Sep 8, 2025 • Age: 10 hours

当前状态

高度 540.8 km
速度 7.60 km/s
星下点 29.56°N, 125.43°W
发射日期 Apr 21, 2022
运行时间 3.3 years
类型 internet

技术详情

分类 Payload
质量 297.00 kg
干质量 275.00 kg
总质量 297.00 kg
长度 0.20 m
直径 2.80 m
跨度 9.00 m
形状 Box + pan
制造商 SPXS
平台类型 Starlink
阶段状态 In Orbit
所有者/国家 SPXS/US

大型星座

Loading constellations...